Showing default

HJS-7B, 65618

Orbit data source: Space-Track

HJS-7B, 65618 is a payload satellite owned by Zhongguo Xingwang (CN) in LEO that was launched on Tue, 16 Sep 2025 UTC via a CHANG ZHENG 2C/YZ-1S launch vehicle from the Jiuquan Satellite Launch Center, China (JSC). Payload-class satellites include a variety of spacecraft equipped with specific instruments for various scientific and technological missions. These include communications satellites like Starlink; space stations such as the ISS; scientific satellites like the Hubble; Earth observation satellites from companies like Planet Labs, Umbra, and HawkEye 360; GPS; miniature CubeSats for education and research; and military/defense satellites.

Loading next visibility...
Identifier
65618, 2025-209B
Orbit
LEO
Country
Flag of CNCN / PRC
Related business
Manufacturer
ZHSW
Mission
Operational Civil Communications
Bus & Motor
Unknown
Mass
~300 kg wet, ~300 kg dry
Launch date (UTC)
2025-09-16 (9 months ago)
Launch vehicle
CHANG ZHENG 2C/YZ-1S
Launch site
Jiuquan Satellite Launch Center, China (JSC)
Object type
Payload
Rocket body
Debris
Shape & HBR
Box + 2 Pan, 1.1 m
Radar Cross Section
2.320 m², Large (>1 m²)

Expand to show TLE details & history
Last TLE update: 18 hours ago

TLE from 18 hours ago
0 HJS-7B
1 65618U 25209B   26171.20324968 -.00000082  00000-0  82377-4 0  9997
2 65618  50.0006 348.2249 0002147 120.4082 239.7008 13.41464990 38047
Epoch: 2026-06-20T04:52Z
TLE epoch observation values (Epoch: 2026-06-20T04:52:40.772Z)
Latitude
0.00001°
Longitude
6.63378°
Altitude
1,105.147 km
Speed
7.301 km/s
True Right ascension
23h 12m 53s
True Declination
0° 00' 00"
Sunlit
Object was in daylight at epoch
Visualization orbit readout
Latitude
Unknown
Longitude
Unknown
Altitude
Unknown
Speed
Unknown
Apparent Right ascension
Unknown
Apparent Declination
Unknown
Sunlit
N/A
Visualization observer readout
Local Sidereal Time
10:17:59
Azimuth
Unknown
Elevation
Unknown
Doppler factor
Unknown
Orbital elements
Apogee altitude
1,106.143 km
Perigee altitude
1,102.93 km
Semi-major axis
7,482.673 km
Eccentricity
0.00021
Inclination
50.0006°
RAAN
348.2249°
Arg. of periapsis
120.4082°
True anomaly
239.67956°
Mean anomaly
239.7008°
Eccentric anomaly
239.69018°
Mean motion
3.35319 °/min
Orbital period
107.36 mins
BSTAR
0.000082377
Loading maneuver chart data...
Computing Atmospheric mass density...
Loading historical data...
Loading historical data...
Loading historical data...
Loading historical data...
Loading historical data...
Loading historical data...
Loading historical data...
Other satellites on launch #209 in the year 2025 (2025-09-16 UTC)

Documentation

Showing up to 5 results
|